Клязьма

Россия / Московская область     55°58′41″N   37°50′01″E
темп.,
°C
ветер,
м/с
пор.,
м/с
влажн.,
%
обл.,
%
осадки,
мм/ч
давл.,
гПа
погр.,
м
11 апреля, вс
вс1100:00+3ююз39710 0.0 1025200
03:00+2ююз38753 0.0 1026165
06:00+2юз27805 0.0 1027134
09:00+7юз24635 0.0 1028286
12:00+11ююз35503 0.0 1029658
15:00+14ююз34423 0.0 10291367
18:00+13ю22523 0.0 103031
21:00+9ююв22643 0.0 103215
12 апреля, пн
пн1200:00+7ююв22720 0.0 103327
03:00+6вюв22750 0.0 103415
06:00+4вюв238196 0.0 103461
09:00+9вюв4964100 0.0 1034380
12:00+12вюв5951100 0.0 1033821
15:00+14вюв6844100 0.0 10311013
18:00+11вюв51063100 0.0 1029758
21:00+9вюв41075100 0.0 1029420
13 апреля, вт
вт1300:00+7вюв4108898 0.0 1028271
03:00+6вюв399795 0.0 1027211
06:00+6юв389669 0.0 1026169
09:00+12ююв496575 0.0 1026341
12:00+16ю5848100 0.0 1025690
15:00+18ю5840100 0.0 10241261
18:00+17ююв4944100 0.0 1023323
21:00+12ююв386379 0.0 1024134
14 апреля, ср
ср1400:00+10ююв376487 0.0 1024108
03:00+9юв35681 0.0 102396
06:00+8ююв367750 0.0 1023106
09:00+12ююв4858100 0.0 1022315
12:00+17ююв4743100 0.0 1021695
15:00+19ююв563417 0.0 10201355
18:00+17ююв3741100 0.0 1019302
21:00+12юв355693 0.0 101999
15 апреля, чт
чт1500:00+10юв2564100 0.0 101993
03:00+10юв2368100 0.0 101848
06:00+9ююв2272100 0.0 101815
09:00+13в225788 0.0 1018215
12:00+17ю2242100 0.0 1017767
15:00+18сз1139100 0.0 10171260
18:00+14с5864100 0.0 1018493
21:00+9с61278100 0.0 1019462